Location: Saint-Palais-sur-Mer
(45.6429°N, 1.0859°W)
Time: 09:46:55
(UTC+02:00)

TIGRISAT - Pass Details

Date: 26 April 2024
Orbit: 594 x 672 km, 97.7° (Epoch: 21 May)

Event Time Altitude Azimuth Distance (km) Brightness Sun altitude
Rises 04:38:49 0° 121° (ESE) 2,912 ? -21.0°
Reaches altitude 10° 04:41:46 10° 99° (E) 1,993 ? -20.6°
Maximum altitude 04:44:21 16° 62° (ENE) 1,640 ? -20.3°
Drops below altitude 10° 04:46:54 10° 26° (NNE) 1,975 ? -20.0°
Sets 04:49:48 0° 4° (N) 2,872 ? -19.7°
